This demonstration page uses our WeatherBlox Daily Observations layout. Learn more.

Left ArrowRight Arrow

44.8408, -93.29828

Hourly Observations for July 31, 2022

Temp ( °F °C ) Dew Point ( °F °C ) Humidity (%) Winds ( mph kmh ) Pressure ( in mb ) Visibility ( mi km ) Precip ( " mm )
12:53 am 00:53 Clear 75 23.9 59 15 58 58 SSW 10 17 30.01 1016 10 16 0.00 0.00
1:53 am 01:53 Clear 73 22.8 57 13.9 57 57 SSW 7 11 30.00 1016 10 16 0.00 0.00
2:53 am 02:53 Clear 72 22.2 57 13.9 59 59 S 6 9 29.99 1016 10 16 0.00 0.00
3:53 am 03:53 Clear 70 21.1 57 13.9 64 64 S 7 11 29.98 1015 10 16 0.00 0.00
4:53 am 04:53 Clear 70 21.1 57 13.9 64 64 S 7 11 29.97 1015 10 16 0.00 0.00
5:53 am 05:53 Clear 69 20.6 57 13.9 66 66 S 12 19 29.94 1014 10 16 0.00 0.00
6:53 am 06:53 Mostly Sunny 67 19.4 57 13.9 71 71 SSE 5 7 29.95 1014 10 16 0.00 0.00
7:53 am 07:53 Partly Cloudy 70 21.1 58 14.4 66 66 S 6 9 29.96 1015 10 16 0.00 0.00
8:53 am 08:53 Partly Cloudy 75 23.9 61 16.1 62 62 SSW 8 13 29.94 1014 10 16 0.00 0.00
9:53 am 09:53 Mostly Cloudy 77 25 63 17.2 62 62 SW 14 22 29.93 1013 10 16 0.00 0.00
10:53 am 10:53 Mostly Cloudy 76 24.4 63 17.2 64 64 S 17 28 29.87 1012 10 16 0.00 0.00
11:53 am 11:53 Mostly Cloudy 79 26.1 63 17.2 58 58 S 21 33 29.82 1010 10 16 0.00 0.00
12:53 pm 12:53 Mostly Cloudy 82 27.8 63 17.2 53 53 S 15 24 29.80 1009 10 16 0.00 0.00
1:53 pm 13:53 Mostly Cloudy 82 27.8 63 17.2 53 53 S 17 28 29.84 1010 10 16 0.00 0.00
2:53 pm 14:53 Mostly Cloudy 83 28.3 64 17.8 53 53 S 16 26 29.81 1010 10 16 0.00 0.00
3:53 pm 15:53 Cloudy 83 28.3 66 18.9 57 57 S 15 24 29.79 1009 10 16 0.00 0.00
4:53 pm 16:53 Mostly Cloudy 86 30 65 18.3 49 49 SSW 13 20 29.77 1008 10 16 0.00 0.00
5:53 pm 17:53 Mostly Cloudy 83 28.3 66 18.9 57 57 SW 17 28 29.75 1007 10 16 0.01 0.25
6:53 pm 18:53 Mostly Cloudy 83 28.3 67 19.4 59 59 SW 14 22 29.72 1007 10 16 0.00 0.00
7:04 pm 19:04 Mostly Cloudy with Nearby Thunderstorms 83 28.3 67 19.4 59 59 SW 15 24 29.69 1006 10 16 0.00 0.00
7:19 pm 19:19 Mostly Cloudy 83 28.3 67 19.4 59 59 SW 13 20 29.69 1006 10 16 0.00 0.00
7:33 pm 19:33 Mostly Cloudy with Nearby Thunderstorms 83 28.3 68 20 61 61 SW 16 26 29.68 1005 10 16 0.00 0.00
7:46 pm 19:46 Mostly Cloudy 83 28.3 68 20 61 61 SW 12 19 29.68 1005 10 16 0.00 0.00
7:53 pm 19:53 Mostly Cloudy 83 28.3 68 20 61 61 SW 12 19 29.71 1006 10 16 0.00 0.00
8:13 pm 20:13 Mostly Cloudy with Nearby Thunderstorms 83 28.3 68 20 61 61 SW 9 15 29.68 1005 10 16 0.00 0.00
8:53 pm 20:53 Mostly Cloudy with Nearby Thunderstorms 80 26.7 70 21.1 71 71 W 14 22 29.71 1006 10 16 0.00 0.00
9:12 pm 21:12 Mostly Cloudy 81 27.2 66 18.9 61 61 WNW 13 20 29.71 1006 10 16 0.00 0.00
9:53 pm 21:53 Mostly Cloudy 79 26.1 65 18.3 62 62 WNW 8 13 29.75 1007 10 16 0.00 0.00
10:53 pm 22:53 Partly Cloudy 78 25.6 66 18.9 67 67 WNW 12 19 29.75 1008 10 16 0.00 0.00
11:53 pm 23:53 Mostly Clear 76 24.4 66 18.9 72 72 WNW 10 17 29.76 1008 10 16 0.00 0.00

Powered by AerisWeather